Location: Brachbach
(49.1847°N, 9.7240°E)
Time: 21:30:11
(UTC+00:00)

Cosmos 2219 Rocket - Pass Details

Date: 14 August 2024
Orbit: 826 x 846 km, 71.0° (Epoch: 09 September)

Event Time Altitude Azimuth Distance (km) Brightness Sun altitude
Exits shadow 00:46:21 48° 252° (WSW) 1,099 2.5 -24.1°
Maximum altitude 00:47:40 61° 303° (WNW) 960 2.4 -24.0°
Drops below altitude 10° 00:53:18 10° 23° (NNE) 2,481 5.7 -23.7°
Sets 00:55:49 0° 28° (NNE) 3,420 6.8 -23.5°
